Overview Statistics Trail Chart Weather Telemetry Raw packets
 

This is the latest recevied weather packets stored in our database for station/object KF0WJA. If no packets are shown the sender has not sent any weather packets the latest 10 day(s).

<< 16 17 18 19 20 21 22 >>
Time Temp. Humidity Pressure Rain* Wind** Luminosity Snow
1788546956 35.56° C 49% 1015.8 hPa 0 mm - 670 W/m² -
1788546651 35° C 49% 1015.6 hPa 0 mm - 670 W/m² -
1788546347 35° C 49% 1015.5 hPa 0 mm - 656 W/m² -
1788546046 35.56° C 48% 1015.6 hPa 0 mm - 634 W/m² -
1788545742 35.56° C 49% 1015.6 hPa 0 mm - 645 W/m² -
1788545437 35° C 50% 1015.7 hPa 0 mm - 645 W/m² -
1788545137 35.56° C 49% 1015.9 hPa 0 mm - 661 W/m² -
1788544832 34.44° C 51% 1016 hPa 0 mm - 623 W/m² -
1788544526 34.44° C 51% 1016 hPa 0 mm - 629 W/m² -
1788544225 34.44° C 51% 1016 hPa 0 mm - 662 W/m² -
1788543920 34.44° C 52% 1016.1 hPa 0 mm - 663 W/m² -
1788543617 34.44° C 52% 1016 hPa 0 mm - 685 W/m² -
1788543317 34.44° C 51% 1016 hPa 0 mm - 658 W/m² -
1788543012 34.44° C 53% 1016.2 hPa 0 mm - 685 W/m² -
1788542708 34.44° C 52% 1016.1 hPa 0 mm - 679 W/m² -
1788542407 34.44° C 52% 1016.5 hPa 0 mm - 675 W/m² -
1788542103 34.44° C 52% 1016.1 hPa 0 mm - 658 W/m² -
1788541798 34.44° C 53% 1016.5 hPa 0 mm - 678 W/m² -
1788541493 33.89° C 53% 1016.6 hPa 0 mm - 677 W/m² -
1788541189 33.33° C 54% 1016.5 hPa 0 mm - 678 W/m² -
1788540887 33.89° C 53% 1016.5 hPa 0 mm - 671 W/m² -
1788540587 33.89° C 54% 1016.6 hPa 0 mm - 675 W/m² -
1788540282 33.33° C 54% 1016.6 hPa 0 mm - 673 W/m² -
1788539978 33.33° C 54% 1016.8 hPa 0 mm - 672 W/m² -
1788539678 33.33° C 55% 1016.5 hPa 0 mm - 653 W/m² -

* Rain latest hour (hover to see other rain measurements)
** Current wind speed in m/s (hover to see current wind gust speed)